Location: Peebles
(55.6412°N, 3.1714°W)
Time: 11:57:58
(UTC+00:00)

RS-15 - Pass Details

Date: 08 December 2023
Orbit: 1893 x 2151 km, 64.8° (Epoch: 02 March)

Event Time Altitude Azimuth Distance (km) Brightness Sun altitude
Exits shadow 05:11:13 37° 294° (WNW) 2,784 8.3 -26.0°
Maximum altitude 05:15:37 54° 241° (WSW) 2,285 8.0 -25.4°
Drops below altitude 10° 05:26:05 10° 169° (SSE) 4,292 10.0 -23.9°
Sets 05:29:23 0° 165° (SSE) 5,273 10.6 -23.4°
